Powrót do katalogu

STARLINK-35494

AktywnyŁącznośćVLEO
NORAD 65927·PAYLOAD·🇺🇸 United States

Wystrzelony Oct 8, 2025 z Vandenberg Space Force Base

Loading…

Następne Przeloty (najbliższe 24 godziny)

TLE

ŚwieżeSource: CelesTrak SupGP

Epoka: Sep 15, 2026, 03:30 UTC

1 65927C 25225T   26258.14631944  .00075397  00000+0  22269-2 0  2581
2 65927  53.1600   2.4022 0001149  81.8123 179.2021 15.34362833    15

Śledź STARLINK-35494 w czasie rzeczywistym z AllMySat

Download on the App Store